Wind_Speed
21 21 22 24 24 24 24 25 25 26 27 29 30 30 29 31 31 31 30 30 29 28 24 19 15 6 3 1 5 19 19 22 24 19 7 4 22 19 22 22 26 27 26 16 18 8 7
21 22 23 22 23 24 25 26 27 28 30 31 31 30 29 30 29 28 29 31 28 24 22 19 18 3 2 2 12 19 19 23 19 9 9 7 7 21 14 23 26 10 25 18 18 24 11
21 22 23 23 24 25 25 26 28 29 30 31 31 29 29 28 27 26 27 30 24 23 17 14 9 7 1 3 16 20 20 20 20 13 7 10 4 9 8 20 21 23 19 21 21 17 27
21 22 23 24 24 25 26 27 28 30 32 32 30 30 29 27 25 25 27 25 23 22 6 16 8 3 2 22 22 18 15 21 17 21 17 19 6 9 5 14 11 24 21 23 20 23 10
22 22 23 24 25 26 27 28 29 30 32 30 29 30 30 28 25 23 25 18 20 26 9 4 24 3 5 31 32 15 12 13 29 11 11 13 4 6 8 5 14 15 22 24 27 22 16
21 23 24 25 25 26 27 28 29 31 31 28 29 31 33 29 23 20 21 13 5 26 26 10 23 4 12 18 29 17 23 30 9 8 3 8 5 4 7 11 6 12 15 14 24 22 23
21 23 24 25 26 26 27 28 30 31 29 29 30 34 36 28 22 23 20 4 7 6 10 6 10 2 15 30 19 23 29 27 4 3 3 4 7 13 20 15 16 8 11 12 6 18 23
22 23 24 25 26 27 27 28 30 31 26 29 31 36 37 26 17 25 9 4 3 3 3 4 15 4 27 27 6 17 37 8 5 4 5 3 7 5 9 6 16 19 10 9 3 13 22
21 23 24 24 26 27 28 29 30 30 23 28 33 33 37 25 6 30 8 15 8 4 1 8 8 7 16 11 6 14 16 14 5 5 5 5 9 12 8 9 9 8 3 1 5 8 14
21 23 23 24 26 27 28 29 30 29 23 29 32 34 32 27 7 25 4 16 4 2 4 16 16 7 15 17 8 16 16 4 5 7 7 5 8 11 12 4 4 5 10 9 7 5 8
21 23 24 25 26 27 29 30 30 26 23 27 31 35 36 27 9 14 17 6 3 1 6 19 12 15 16 10 10 15 20 7 4 16 4 8 10 12 4 4 6 6 3 12 11 6 3
21 22 24 25 26 27 29 30 30 25 19 24 33 32 35 35 18 31 10 1 4 6 4 10 7 16 22 14 9 16 7 17 2 5 4 4 6 5 8 10 3 3 3 6 4 3 7
21 22 24 24 25 27 28 29 29 25 19 13 25 36 36 25 18 30 6 3 5 6 9 13 15 19 15 17 12 15 14 22 15 10 13 6 5 10 19 7 5 4 5 3 6 6 4
20 22 23 24 25 27 29 30 31 28 20 14 13 32 35 37 24 25 13 5 10 8 5 8 18 15 8 17 11 16 14 18 10 11 8 8 9 18 15 5 5 7 2 2 6 6 4
20 21 22 24 26 28 29 31 31 30 21 18 7 22 33 30 31 22 5 8 3 4 8 10 13 6 7 16 9 10 13 15 6 17 7 7 5 6 12 7 11 6 1 3 2 1 5
19 20 22 24 25 27 29 30 31 31 22 16 6 6 31 27 24 11 6 9 2 4 6 5 7 5 5 10 12 12 13 6 19 16 13 5 4 5 9 9 5 3 5 1 0 4 5
18 19 20 22 24 26 28 30 31 31 23 12 6 4 23 17 8 6 5 4 3 5 8 7 4 4 4 5 6 6 7 8 18 18 10 3 3 6 6 14 13 11 4 4 3 1 3
17 18 19 21 22 24 26 28 30 30 25 8 4 4 20 19 6 3 4 3 7 7 5 3 3 3 3 5 5 5 5 4 13 14 11 3 2 3 3 3 15 14 7 3 2 4 3
15 17 18 20 22 23 25 27 28 27 21 3 3 1 9 11 5 4 4 4 3 6 6 6 5 4 3 3 4 1 6 10 11 15 11 7 4 4 6 3 10 9 20 10 2 1 4
14 15 17 19 21 23 24 26 27 26 20 3 3 3 4 4 2 2 3 5 7 5 2 5 3 4 5 4 1 5 5 6 14 9 23 5 4 3 3 4 10 16 24 22 4 3 2
13 14 15 17 19 22 23 24 26 25 18 3 4 1 2 4 4 3 2 3 6 6 3 6 4 9 1 4 6 4 4 8 7 12 8 5 5 4 2 3 11 18 22 25 20 15 7
12 12 14 15 17 19 22 23 24 25 13 9 3 3 3 1 2 4 6 2 5 5 2 5 0 11 3 3 5 9 5 1 4 10 8 6 3 3 2 8 3 18 22 19 18 13 11
10 11 12 13 14 17 19 22 23 23 14 6 3 3 4 3 2 3 2 4 4 3 3 4 4 3 3 5 6 11 8 9 7 6 5 6 3 4 4 9 3 5 15 12 7 13 6
8 9 10 11 12 15 16 20 22 20 18 7 3 2 3 2 2 1 1 2 5 4 4 5 3 3 5 9 9 2 4 8 5 4 4 5 3 2 3 5 6 3 7 6 2 11 14
7 8 8 9 10 12 13 15 19 18 12 12 6 1 3 1 1 2 3 3 6 4 2 3 3 5 10 5 4 6 5 6 3 2 3 2 2 3 3 2 2 6 5 4 4 6 11
5 7 7 6 8 10 11 12 15 17 11 8 13 5 4 4 4 3 1 0 1 4 6 4 4 7 5 2 4 3 2 3 6 11 3 2 5 4 4 5 0 6 5 4 1 2 9
4 6 8 4 6 7 9 10 11 12 17 9 7 9 2 2 3 4 2 3 4 1 3 4 7 7 3 3 3 2 3 2 3 3 5 5 4 3 3 0 6 5 7 4 4 4 6
4 6 7 4 5 6 8 9 11 11 10 12 5 9 3 2 4 6 6 4 1 2 2 4 3 3 3 4 2 2 0 2 2 3 2 2 2 2 2 4 4 1 3 5 4 4 3
6 6 6 6 6 7 8 10 9 10 11 11 3 5 4 3 4 4 8 8 7 6 4 2 4 2 2 3 1 1 2 2 2 3 2 3 5 3 7 4 3 3 4 3 3 3 3
Wind_Direction
25 24 21 18 14 11 9 7 4 2 0 360 358 357 355 352 351 348 345 341 340 336 338 338 335 343 350 350 254 340 333 345 330 316 320 292 223 216 229 223 226 232 232 225 217 250 238
23 22 19 16 13 11 9 7 5 3 1 359 357 355 353 350 349 347 341 341 340 336 338 343 334 177 127 12 307 315 322 330 337 300 289 294 281 223 238 233 207 238 242 233 213 224 234
24 20 17 14 12 10 8 7 5 2 360 357 355 355 353 352 349 347 342 342 348 343 349 6 29 134 64 301 327 311 304 300 315 294 278 265 285 297 244 218 227 235 254 233 233 218 220
22 18 16 13 11 10 8 7 5 2 358 356 355 353 353 353 352 350 349 351 13 1 69 37 60 11 266 355 332 317 328 310 310 298 271 267 259 288 236 236 193 218 217 237 225 219 220
21 18 15 13 10 10 8 6 4 2 359 357 357 355 354 354 354 351 348 359 28 37 65 17 18 13 19 341 352 333 335 312 314 305 289 260 325 223 229 259 213 194 214 220 221 208 205
21 17 15 13 11 9 8 6 2 1 359 1 -0 359 0 357 356 353 349 354 340 46 42 31 6 31 353 339 329 356 341 327 284 306 275 203 217 251 239 219 221 219 201 216 214 204 211
21 17 15 12 11 9 8 6 3 1 3 7 6 5 1 3 2 357 356 10 17 356 30 83 349 266 326 334 346 1 350 324 349 283 281 249 225 222 233 239 247 287 232 226 171 205 204
21 17 16 14 11 8 8 6 4 3 7 13 9 5 2 4 14 7 19 59 323 280 337 334 11 319 343 342 351 354 357 2 330 307 323 320 270 299 267 297 230 241 263 236 281 190 210
20 17 15 14 12 9 7 6 5 5 10 10 8 6 5 9 15 12 21 8 337 198 78 1 340 327 343 345 346 337 2 323 274 299 322 259 271 333 296 241 226 195 170 263 231 200 241
18 17 14 14 13 9 7 7 6 8 21 16 8 10 12 14 28 355 37 354 83 155 67 355 354 340 344 332 354 339 336 292 342 324 328 294 329 313 294 215 154 209 199 227 256 241 219
18 16 13 13 12 9 8 7 7 15 27 24 19 12 19 24 12 17 328 1 129 53 30 338 333 323 327 30 289 333 334 344 302 337 324 320 307 323 4 226 153 202 66 194 203 250 240
16 15 14 12 11 8 8 7 8 15 28 32 23 20 19 16 11 359 339 305 343 49 320 329 321 336 345 352 337 332 354 2 285 321 341 309 303 350 325 297 169 202 83 174 135 145 244
16 15 14 11 9 7 8 7 8 13 16 4 11 19 22 11 348 360 11 22 51 52 341 337 333 332 339 350 347 1 346 8 26 340 352 319 345 358 10 359 6 342 72 173 182 204 242
18 15 13 9 8 8 8 5 7 12 11 4 8 20 24 21 15 6 34 56 61 341 345 304 331 324 349 357 343 348 359 9 13 2 317 352 360 355 353 355 313 290 187 291 193 178 209
15 14 13 9 7 8 8 6 5 10 8 8 0 21 14 13 18 22 65 50 40 331 320 317 329 351 332 357 347 357 358 7 355 356 356 341 332 330 -0 343 356 337 183 31 279 245 119
17 13 12 8 8 9 8 6 4 6 7 6 11 359 13 358 18 39 53 85 58 11 320 323 359 2 322 324 357 5 351 324 352 353 344 323 312 310 330 335 356 14 321 175 156 206 107
18 14 13 9 9 10 8 7 4 3 5 9 35 40 359 1 30 44 61 50 346 333 8 3 331 305 303 306 324 323 306 306 358 339 332 293 46 307 328 18 8 5 3 339 261 296 139
17 14 12 11 9 10 9 9 6 3 6 26 62 44 351 8 47 31 44 18 328 325 0 332 359 289 301 298 314 330 325 229 336 330 345 259 76 308 274 255 16 31 343 277 320 8 352
16 15 12 13 9 9 12 10 9 6 9 18 81 266 9 30 45 17 342 346 355 349 347 355 338 7 356 293 357 334 324 291 341 354 2 320 4 348 350 337 19 12 8 6 276 146 10
16 16 14 13 11 10 10 12 11 9 12 43 80 25 341 47 35 73 359 354 352 346 321 346 307 344 338 330 153 297 314 301 335 343 359 44 39 91 81 64 14 3 14 16 55 54 60
13 18 15 15 14 12 10 13 14 11 13 52 32 52 187 341 359 24 10 344 341 351 327 3 344 3 246 320 321 329 316 312 316 346 2 60 32 21 298 18 44 24 13 19 30 14 58
11 16 17 15 16 15 12 12 15 17 17 64 99 103 3 270 313 13 358 339 339 317 288 313 50 333 137 175 196 304 335 79 252 326 348 1 340 355 271 359 65 34 18 19 21 9 24
8 12 17 13 16 17 17 15 17 23 33 78 58 100 106 298 0 58 260 275 294 350 284 246 269 2 319 237 216 263 227 263 270 315 314 9 353 21 301 350 25 15 7 5 35 26 336
3 4 15 15 16 18 22 21 20 23 36 76 59 101 86 276 110 227 289 267 294 303 220 284 115 102 254 324 291 223 227 247 243 269 241 304 58 80 295 354 46 259 7 340 25 30 20
0 2 10 15 17 18 22 23 22 21 29 59 49 66 108 279 287 311 309 319 319 301 274 258 270 226 320 325 21 11 347 7 319 350 15 108 107 17 67 27 274 352 9 354 6 17 9
347 352 355 10 12 17 18 22 21 22 23 43 45 39 95 112 261 170 223 133 281 324 323 263 318 328 16 54 54 70 349 301 319 331 62 65 88 93 21 84 350 245 293 340 200 30 6
329 331 338 357 2 8 13 14 14 17 19 19 40 24 80 110 250 146 194 191 151 143 250 306 333 350 12 19 53 36 302 177 344 325 327 342 360 72 23 113 291 261 296 314 52 283 352
300 317 331 347 348 345 348 343 344 348 350 353 352 13 1 160 268 206 191 144 109 103 122 276 32 346 21 50 59 288 97 270 344 228 225 203 84 298 65 42 331 216 328 103 220 310 323
287 294 316 324 324 324 327 329 337 338 314 327 326 325 346 224 241 245 242 247 231 200 144 355 173 190 184 71 331 59 316 350 169 287 348 336 180 207 172 220 243 264 184 231 182 196 299
Height
855 852 849 846 842 839 834 830 825 820 814 810 805 800 796 790 785 779 775 770 766 761 758 755 753 753 752 753 749 742 739 737 734 729 730 732 729 731 723 721 726 715 716 718 725 732 732
857 853 850 847 844 839 835 829 824 819 813 809 804 800 795 790 785 779 773 768 764 759 756 753 751 751 751 755 745 742 740 736 734 732 727 728 723 721 719 719 717 708 718 716 721 725 731
858 855 852 849 844 840 835 830 824 819 814 809 804 800 795 790 785 779 773 767 762 758 756 754 748 749 750 752 745 742 739 736 734 731 727 724 726 727 711 709 710 712 723 719 717 720 721
860 858 854 850 845 840 835 830 825 820 814 809 804 799 794 789 784 779 772 767 762 757 754 755 753 751 751 749 745 740 737 732 730 726 723 720 723 722 721 705 700 714 714 721 708 713 719
863 859 855 851 846 842 836 831 826 822 816 809 803 798 793 788 784 779 773 768 765 759 757 756 754 754 755 748 742 739 737 733 725 718 717 716 717 715 713 716 701 695 692 698 709 702 715
864 860 856 852 848 843 838 833 827 822 816 810 804 798 792 787 783 779 774 768 765 763 760 756 758 760 756 753 745 742 737 730 723 717 713 714 715 713 703 706 688 685 692 692 693 696 707
865 861 857 854 849 845 840 835 828 822 816 811 805 799 793 786 783 778 773 769 770 771 768 775 774 768 762 753 744 742 736 724 720 719 718 713 710 705 698 694 696 697 690 693 694 692 705
866 863 859 855 851 846 841 836 829 823 817 812 807 800 792 785 782 778 775 777 780 781 778 772 769 765 760 753 749 742 736 735 731 729 722 720 713 705 705 702 698 703 696 690 693 685 691
868 864 861 857 852 848 842 836 831 824 818 813 808 801 792 783 782 776 778 782 778 779 782 776 772 766 762 756 754 747 742 737 732 728 726 731 714 712 706 700 703 701 699 701 695 692 689
870 866 862 858 853 848 843 838 832 826 820 815 809 803 795 785 783 782 780 780 779 780 804 786 778 774 766 759 757 750 744 742 734 736 728 721 717 714 707 707 700 704 695 700 699 692 684
871 868 863 858 854 849 844 839 833 827 822 818 812 804 796 788 791 786 788 782 781 781 827 794 784 778 776 775 769 754 750 741 742 738 734 730 719 713 698 696 697 719 694 694 701 707 686
873 869 864 860 855 850 845 840 834 828 824 820 815 808 801 793 790 790 786 784 783 800 867 805 795 789 779 773 769 761 757 747 738 738 729 732 725 719 716 705 697 701 696 698 704 704 695
873 870 866 862 857 852 846 841 835 829 825 821 818 813 804 799 796 789 784 786 814 834 819 811 803 797 788 784 775 773 770 760 764 753 748 732 726 720 718 711 702 701 708 690 691 691 677
875 871 867 863 858 853 847 841 836 831 826 823 822 817 809 805 799 792 788 805 826 831 828 814 810 801 796 791 787 783 781 773 765 769 765 753 738 732 735 734 729 725 697 692 686 679 705
876 873 869 864 859 854 848 843 837 831 826 823 822 819 814 811 805 800 804 829 851 843 833 825 816 818 810 797 806 796 794 784 784 776 777 760 752 742 736 736 729 718 698 714 698 712 684
877 874 869 865 860 855 850 845 838 833 827 823 822 821 820 816 813 806 817 832 846 838 835 829 838 829 830 817 812 809 802 791 783 780 777 768 767 743 739 730 727 729 725 703 696 683 699
879 875 871 867 862 857 852 846 840 834 828 825 824 830 826 821 817 820 841 849 841 838 838 838 837 838 832 833 826 823 815 795 788 781 776 779 780 754 744 748 749 742 739 734 723 706 688
880 876 873 869 865 860 855 849 842 835 830 827 830 841 830 824 828 845 851 847 842 841 840 838 838 838 838 836 836 828 815 813 795 792 783 777 784 776 770 757 750 754 754 745 724 707 724
881 878 874 871 867 861 856 851 845 839 834 832 841 844 835 829 851 856 852 847 845 844 843 841 840 840 838 843 850 840 819 802 799 793 790 785 794 792 761 758 753 757 757 747 738 740 753
881 878 875 872 867 862 858 853 847 841 836 835 843 848 844 844 855 856 859 854 849 844 845 845 843 840 842 841 838 847 827 808 802 800 783 786 810 805 796 790 787 778 765 757 755 747 748
882 878 876 873 869 864 860 855 850 844 839 838 849 862 862 861 856 860 859 859 854 854 848 846 844 843 858 861 849 842 830 822 807 804 806 811 812 807 787 782 785 783 775 769 766 762 757
883 880 877 874 870 866 862 858 853 847 842 843 857 864 867 871 863 862 864 866 857 857 854 849 856 844 866 866 849 839 841 851 844 816 816 819 817 809 801 788 778 784 789 779 780 780 778
883 881 878 875 872 868 865 862 856 851 846 851 857 858 862 869 865 870 874 871 862 857 851 848 851 861 864 848 844 836 837 831 831 830 830 834 827 830 818 798 791 794 805 799 799 800 796
883 881 878 877 874 869 867 865 861 856 853 854 858 858 867 873 873 863 868 863 857 858 867 852 856 863 841 836 831 830 832 830 832 829 830 834 864 861 831 808 832 813 807 806 803 807 803
883 881 879 878 875 872 870 867 865 862 859 856 858 858 867 880 871 864 863 862 865 865 861 854 848 846 840 837 841 846 831 822 821 819 836 848 859 852 839 862 826 823 815 818 815 809 810
882 881 880 878 876 875 872 869 867 865 862 860 860 860 860 873 871 863 865 866 874 865 864 851 845 842 842 842 848 869 856 847 840 829 822 833 856 847 864 870 850 828 818 815 815 813 817
881 880 879 878 876 875 873 871 869 867 865 863 862 862 861 873 862 861 867 869 870 872 872 864 855 850 847 853 857 863 860 859 861 871 851 845 857 865 873 886 846 829 822 815 814 822 821
880 879 878 877 876 875 873 872 870 868 867 866 864 862 863 868 858 854 855 862 865 870 877 862 864 859 859 866 870 877 876 869 868 858 855 857 873 872 879 880 845 828 817 823 829 828 822
877 877 877 876 874 873 872 871 869 868 865 864 863 862 860 860 855 851 850 851 851 852 859 868 865 869 864 874 883 886 875 884 872 870 841 853 851 859 853 840 828 829 828 829 830 829 825